Location: Pinawa
(50.1500°N, 95.8830°W)
Time: 13:22:53
(UTC-05:00)

Daily predictions for brighter satellites

Satellite Brightness Start Highest point End
(mag) Time Altitude Azimuth Time Altitude Azimuth Time Altitude Azimuth
ATLAS 5 CENTAUR R/B 4.4 21:44:12 10° WNW 21:48:46 23° WSW 21:53:33 10° SSW
Okean 2 Rocket 3.7 21:47:47 10° SSE 21:51:52 38° E 21:55:57 10° NNE
ARGOS 3.7 21:47:25 10° SE 21:52:27 43° ENE 21:57:29 10° N
Cosmos 1242 Rocket 2.8 21:50:07 10° N 21:53:44 54° ENE 21:57:23 10° SSE
ISS -2.4 21:55:26 10° SSW 21:58:15 27° SE 22:01:04 10° E
Cosmos 1184 Rocket 3.1 21:55:29 10° S 21:58:43 48° E 22:01:59 10° NNE
Cosmos 1939 Rocket 3.5 21:55:19 10° S 21:59:08 56° W 22:03:04 10° NNW
YAOGAN 6 2.7 21:56:37 10° SSE 22:00:04 56° ENE 22:03:33 10° N
Nadezhda 3 Rocket 4.2 21:53:56 10° NNW 22:00:19 79° W 22:06:41 10° S
Terra 3.3 21:57:25 10° ESE 22:01:07 23° ENE 22:04:51 10° N
Cosmos 1238 Rocket 2.6 21:58:50 10° NNW 22:02:01 76° W 22:05:42 10° S
Cosmos 1408 2.5 21:58:33 10° S 22:02:12 69° E 22:05:50 10° NNE
Cosmos 1782 Rocket 3.7 21:58:02 10° S 22:02:25 58° E 22:06:50 10° NNE
SPOT 1/Viking Rocket 3.8 21:57:47 10° SE 22:02:52 57° ENE 22:08:00 10° N
Sich 1 Rocket 4.0 21:59:04 10° SSW 22:03:38 70° WNW 22:08:14 10° N
SPOT 5 3.3 22:06:07 10° S 22:11:27 78° WSW 22:16:51 10° NNW
Cosmos 1833 Rocket 2.9 22:06:36 10° NNW 22:12:12 61° ENE 22:17:28 12° SE
AVUM R/B 4.1 22:09:01 10° NNW 22:12:24 43° NE 22:15:24 12° SE
Cosmos 1975 Rocket 3.1 22:08:17 10° NNW 22:12:38 80° W 22:16:58 10° S
Cosmos 1825 2.2 22:09:27 10° S 22:13:16 87° W 22:17:08 10° N
DNEPR-1 R/B 4.4 22:09:00 10° NW 22:14:33 56° WSW 22:19:07 10° SSE
Cosmos 1850 Rocket 4.1 22:09:22 10° NNW 22:14:43 85° WSW 22:20:03 10° SSE
Cosmos 1727 Rocket 4.4 22:10:47 10° N 22:16:45 48° ENE 22:22:23 11° SSE
Cosmos 2084 3.1 22:13:49 10° SW 22:17:38 71° SE 22:21:29 10° NE
MetOp-A 4.3 22:14:15 10° SSE 22:19:35 78° WSW 22:24:59 10° NNW
COS B Rocket 4.0 22:15:35 10° N 22:19:38 55° W 22:23:18 10° SSW
Cosmos 2278 Rocket 2.2 22:14:49 10° SSW 22:20:28 77° ESE 22:26:11 10° NNE
Cosmos 1844 Rocket 3.4 22:15:16 10° SW 22:20:51 61° WNW 22:26:28 10° NNE
Cosmos 1536 Rocket 4.0 22:21:06 10° N 22:25:28 49° ENE 22:29:10 14° SSE
Cosmos 1844 4.1 22:20:21 10° SW 22:26:08 72° WNW 22:31:58 10° NNE
USA 229 DEB 3.8 22:20:00 10° NW 22:27:07 85° SW 22:33:32 14° SE
USA 229 3.8 22:20:06 10° NW 22:27:13 85° SW 22:33:38 14° SE
Cosmos 2341 Rocket 4.2 22:26:22 10° SSW 22:32:39 76° W 22:38:56 10° N
deb Chang Zheng 4 4.3 22:28:49 10° N 22:33:09 57° WNW 22:37:30 10° SSW
Meteor 1-18 Rocket 4.5 22:27:36 10° N 22:33:29 65° ENE 22:38:39 14° SSE
BREEZE-M DEB (TANK) 4.4 22:21:47 10° WNW 22:34:49 42° SW 22:38:18 14° SSE
BREEZE-M DEB 4.5 22:31:11 10° SW 22:35:01 46° SSE 22:37:32 11° E
Cosmos 1741 Rocket 4.4 22:30:32 10° NNW 22:35:42 61° WSW 22:40:43 10° S
Cosmos 2082 Rocket 2.3 22:30:08 10° NNW 22:35:52 79° WSW 22:40:49 14° SSE
Cosmos 1812 3.4 22:33:09 10° N 22:36:51 40° ENE 22:39:21 18° SE
SL-8 Rocket 4.0 22:36:30 10° S 22:42:46 81° E 22:49:02 10° N
Meteor 1-14 Rocket 4.2 22:37:49 10° S 22:43:27 73° E 22:49:01 10° NNE
NOSS 3-1 (A) 4.4 22:38:03 10° NW 22:45:11 57° NE 22:52:37 12° ESE
USA 245 3.8 22:42:27 12° S 22:45:41 58° W 22:50:06 10° NNW
Intercosmos 25 3.3 22:48:35 10° SSW 22:51:53 62° W 22:55:06 10° N
H-2A R/B 4.3 22:52:35 10° SW 22:55:46 20° W 22:58:55 10° NW
Cosmos 2297 3.7 22:51:08 10° SSW 22:56:50 77° ESE 23:02:36 10° NNE
IGS 5A 3.7 22:54:28 21° SE 22:57:05 56° ENE 23:01:11 10° N
Cosmos 2151 Rocket 3.6 22:53:44 11° S 22:58:04 80° E 23:02:37 10° NNE
CZ-4 R/B 3.7 22:53:44 10° NNE 22:58:27 70° ESE 23:02:41 12° S
Cosmos 1025 Rocket 4.4 22:56:05 10° N 22:59:49 26° ENE 23:02:03 18° ESE
ATLAS 2AS CENTAUR R/B 4.0 22:58:13 10° NW 23:05:58 43° NNE 23:13:29 10° E
APEX 3.9 23:01:53 10° SW 23:06:09 78° WNW 23:11:50 10° NNE
Cosmos 864 Rocket 4.5 23:06:41 10° S 23:12:50 88° W 23:19:04 10° N
Cosmos 1300 Rocket 3.9 23:10:39 24° SSE 23:13:04 51° E 23:17:24 10° NNE
NOSS 3-1 (C) 4.0 23:07:40 10° NW 23:15:01 84° NE 23:21:03 20° SE
SL-8 R/B 3.6 23:10:14 10° W 23:15:03 73° S 23:19:10 14° E
Gbstr 26 Del rocket 3.3 23:11:11 10° WNW 23:16:17 58° SSW 23:18:30 27° SE
Cosmos 1486 Rocket 4.0 23:11:27 10° NNW 23:16:50 80° ENE 23:20:03 25° SSE
Okean 1 Rocket 3.4 23:15:49 26° SSE 23:18:04 50° E 23:22:23 10° NNE
CZ-4C R/B 3.8 23:17:11 21° S 23:19:41 58° W 23:23:51 10° NNW
Landsat 7 4.3 23:19:26 18° S 23:22:49 56° W 23:27:32 10° NNW
Cosmos 2366 rocket 4.2 23:17:37 10° SSW 23:23:54 72° WNW 23:30:17 10° N
CZ-4B R/B 4.0 23:19:19 10° N 23:24:12 57° WNW 23:28:56 10° SW
USA 234 3.8 23:19:26 10° ENE 23:25:18 34° SE 23:30:12 14° S
Okean 1-7 Rocket 3.5 23:22:03 10° N 23:26:35 83° E 23:28:52 29° SSE
H-2A R/B 2.4 23:22:52 20° S 23:26:39 65° WSW 23:31:55 10° NNW
Cosmos 2369 Rocket 3.4 23:26:50 21° ESE 23:28:06 23° ESE 23:32:24 10° NE
Cosmos 1400 Rocket 3.8 23:30:22 29° ESE 23:31:23 33° E 23:35:08 10° NNE
ARGOS 4.5 23:28:02 10° SSW 23:32:48 33° W 23:37:38 10° NNW
Cosmos 1536 3.8 23:32:38 27° ESE 23:33:26 29° E 23:36:56 10° NNE
ISS -3.4 23:31:10 10° WSW 23:34:27 87° N 23:37:43 10° ENE
Cosmos 1633 3.8 23:34:25 26° ESE 23:34:53 27° E 23:38:04 10° NNE
Meteor 1-19 Rocket 4.4 23:29:47 10° N 23:35:40 70° ENE 23:38:53 27° SSE
Timation 1 Rocket 4.3 23:30:23 10° SSW 23:36:22 77° ESE 23:42:24 10° NNE
Terra 2.3 23:35:40 23° S 23:38:32 56° W 23:43:15 10° NNW
Meteor 1-20 Rocket 4.4 23:43:06 14° SSW 23:47:52 68° WNW 23:53:23 10° N
Cosmos 1302 Rocket 4.1 23:46:58 29° S 23:49:36 60° ESE 23:54:49 10° NNE
Okean 1 4.5 23:48:28 10° NNW 23:52:14 37° W 23:54:20 22° SW
Spot 4 4.3 23:50:39 26° SSW 23:53:14 54° W 23:58:00 10° NNW
